Location: Schommer Observatory
(40.5200°N, 74.4500°W)
Time: 02:32:05
(UTC-05:00)

Tiangong 1 - Pass Details

Date: 14 November 2017
Orbit: 284 x 308 km, 42.8° (Epoch: 22 November)

Event Time Altitude Azimuth Distance (km) Brightness Sun altitude
Exits shadow 05:04:03 12° 176° (S) 1,014 3.3 -18.9°
Drops below altitude 10° 05:04:29 10° 168° (SSE) 1,129 3.7 -18.8°
Sets 05:06:49 0° 145° (SE) 1,950 5.3 -18.4°
